Home > Weather > Longyearbyen > Past weeks

Flag for Norway Past Weather in Longyearbyen, Svalbard, Norway — Yesterday and Last 2 Weeks

Now
45 °F

Broken clouds.


Feels Like: 39 °F
Forecast: 46 / 48 °F
Wind: 10 mph from West

Location: Svalbard Lufthavn

Current Time: Jun 29, 2016 at 7:47:26 AM

Latest Report: Jun 29, 2016 at 6:50 AM


Visibility: N/A

Pressure: 29.95 "Hg

Humidity: 87%

Dew Point: 41 °F

Location of LongyearbyenLocation

Past Weather in Longyearbyen — Graph

°F

Longyearbyen Temperature Yesterday

Maximum temperature yesterday: 50 °F (at 12:50 PM)
Minimum temperature yesterday: 45 °F (at 1:50 AM)
Average temperature yesterday: 48 °F

High & Low Weather Summary for the Past Weeks

 TemperatureHumidityPressure
High50 °F (Jun 28, 12:50 PM)93% (Jun 15, 9:20 AM)30.09 "Hg (Jun 15, 9:20 AM)
Low36 °F (Jun 15, 9:20 AM)49% (Jun 14, 9:50 PM)29.62 "Hg (Jun 16, 5:50 AM)
Average43 °F75%29.81 "Hg
* Reported Jun 14 5:20 AM — Jun 29 5:50 AM, Longyearbyen, Weather by CustomWeather, © 2016

Note: Actual official high and low records may vary slightly from our data, if they occured in-between our weather recording intervals... More about our weather records

Advertising

Longyearbyen Weather History for the Previous 24 Hours

Scroll right to see more
 ConditionsComfort  
Time TempWeatherWind HumidityBarometerVisibility
5:50 AM
Wed, Jun 29
45 °FBroken clouds.9 mph87%29.95 "HgN/A
4:50 AM45 °FBroken clouds.12 mph87%29.95 "HgN/A
3:50 AM46 °FPartly sunny.12 mph82%29.92 "HgN/A
2:50 AM46 °FBroken clouds.13 mph82%29.92 "HgN/A
1:50 AM46 °FPartly sunny.12 mph82%29.92 "HgN/A
12:50 AM48 °FBroken clouds.13 mph76%29.92 "HgN/A
11:50 PM
Tue, Jun 28
48 °FPartly sunny.14 mph76%29.92 "HgN/A
10:50 PM48 °FPartly sunny.13 mph71%29.89 "HgN/A
9:50 PM48 °FPartly sunny.13 mph66%29.89 "HgN/A
8:50 PM50 °FPartly sunny.8 mph62%29.89 "HgN/A
7:50 PM50 °FPartly sunny.7 mph62%29.89 "HgN/A
6:50 PM50 °FPartly sunny.8 mph67%29.89 "HgN/A
5:50 PM50 °FPartly sunny.8 mph67%29.89 "HgN/A
4:50 PM50 °FPartly sunny.8 mph67%29.89 "HgN/A
3:50 PM50 °FPartly sunny.8 mph67%29.89 "HgN/A
2:50 PM50 °FPartly sunny.8 mph62%29.89 "HgN/A
2:20 PM50 °FScattered clouds.6 mph67%29.89 "HgN/A
1:50 PM50 °FScattered clouds.7 mph62%29.89 "HgN/A
1:20 PM50 °FPassing clouds.7 mph62%29.89 "HgN/A
12:50 PM50 °FScattered clouds.6 mph62%29.86 "HgN/A
12:20 PM48 °FScattered clouds.6 mph71%29.86 "HgN/A
11:50 AM48 °FScattered clouds.5 mph71%29.86 "HgN/A
11:20 AM48 °FPassing clouds.6 mph71%29.86 "HgN/A
10:50 AM48 °FScattered clouds.5 mph71%29.86 "HgN/A
10:20 AM48 °FScattered clouds.5 mph71%29.86 "HgN/A
9:50 AM46 °FScattered clouds.5 mph76%29.86 "HgN/A
8:50 AM46 °FScattered clouds.3 mph76%29.86 "HgN/A
7:50 AM46 °FScattered clouds.3 mph76%29.86 "HgN/A
7:20 AM45 °FScattered clouds.3 mph76%29.86 "HgN/A
Weather by CustomWeather, © 2016

See weather overviewHow to use our weather pages